Weather History for Sallisaw, OK

Change the Weather History Date:

Wednesday, November 21, 2012

  Actual Average Record
Temperature  
Mean Temperature 53 °F -  
Max Temperature 73 °F 60 °F 77 °F (1966)
Min Temperature 33 °F 37 °F 20 °F (1964)
Degree Days  
Heating Degree Days 12    
Growing Degree Days 3 (Base 50)    
Moisture  
Dew Point 39 °F    
Average Humidity 68    
Maximum Humidity 100    
Minimum Humidity 25    
Precipitation  
Precipitation 0.00 in - - ()
Sea Level Pressure  
Sea Level Pressure 30.21 in    
Wind  
Wind Speed 2 mph (East)    
Max Wind Speed 7 mph    
Max Gust Speed -    
Visibility 9 miles    
Events Thunderstorm    
Averages and records for this station are not official NWS values.
T = Trace of Precipitation, MM = Missing Value Source: NWS Daily Summary

Daily Weather History Graph

Daily Weather History Graph

Search for Another Location

Airport:

Trip Planner

Search our weather history database for the weather conditions in past years. The results will help you decide how hot, cold, wet, or windy it might be!

Date:

Astronomy

Nov. 21, 2012 Rise Set
Actual Time 7:00 AM CST 5:09 PM CST
Civil Twilight 6:33 AM CST 5:36 PM CST
Nautical Twilight 6:02 AM CST 6:07 PM CST
Astronomical Twilight 5:32 AM CST 6:38 PM CST
Moon 1:14 PM CST (11/21) 12:34 AM CST (11/21)
Length of Visible Light 11h 03m
Length of Day
10h 08m
First Quarter, 62% of the Moon is Illuminated
Nov 21
First Quarter
Nov 28
Full
Dec 6
Last Quarter
Dec 13
New
Dec 19
First Quarter

Hourly Weather History & Observations

Time (CST) Temp. Windchill Dew Point Humidity Pressure Visibility Wind Dir Wind Speed Gust Speed Precip Events Conditions
12:15 AM 41.0 °F - 41.0 °F 100% 30.23 in 10.0 mi Calm Calm - N/A Thunderstorm Clear
12:35 AM 41.0 °F - 41.0 °F 100% 30.23 in 7.0 mi Calm Calm - N/A   Clear
12:55 AM 41.0 °F - 41.0 °F 100% 30.23 in 4.0 mi Calm Calm - N/A   Clear
1:15 AM 39.2 °F - 39.2 °F 100% 30.23 in 10.0 mi Calm Calm - N/A   Clear
1:35 AM 39.2 °F - 39.2 °F 100% 30.22 in 7.0 mi Calm Calm - N/A   Clear
1:55 AM 37.4 °F - 37.4 °F 100% 30.23 in 7.0 mi Calm Calm - N/A   Clear
2:15 AM 35.6 °F 32.8 °F 35.6 °F 100% 30.23 in 5.0 mi East 3.5 mph - N/A   Clear
2:35 AM 37.4 °F 34.9 °F 37.4 °F 100% 30.23 in 10.0 mi East 3.5 mph - N/A   Clear
2:55 AM 37.4 °F - 37.4 °F 100% 30.23 in 5.0 mi Calm Calm - N/A   Clear
3:15 AM 37.4 °F - 37.4 °F 100% 30.24 in 7.0 mi Calm Calm - N/A   Clear
3:35 AM 37.4 °F - 35.6 °F 93% 30.25 in 10.0 mi Calm Calm - N/A   Clear
3:55 AM 35.6 °F - 35.6 °F 100% 30.25 in 10.0 mi Calm Calm - N/A   Clear
4:15 AM 35.6 °F - 35.6 °F 100% 30.25 in 7.0 mi Calm Calm - N/A   Clear
4:35 AM 35.6 °F - 35.6 °F 100% 30.25 in 4.0 mi Calm Calm - N/A   Clear
4:55 AM 33.8 °F 30.8 °F 33.8 °F 100% 30.25 in 5.0 mi ENE 3.5 mph - N/A   Clear
5:15 AM 35.6 °F - 35.6 °F 100% 30.25 in 7.0 mi Calm Calm - N/A   Clear
5:35 AM 33.8 °F - 33.8 °F 100% 30.25 in 7.0 mi Calm Calm - N/A   Clear
5:55 AM 33.8 °F - 33.8 °F 100% 30.25 in 1.8 mi Calm Calm - N/A   Mist
6:15 AM 35.6 °F - 35.6 °F 100% 30.25 in 5.0 mi Calm Calm - N/A   Clear
6:35 AM 33.8 °F 29.6 °F 33.8 °F 100% 30.26 in 5.0 mi ENE 4.6 mph - N/A   Clear
6:55 AM 33.8 °F - 33.8 °F 100% 30.26 in 4.0 mi Calm Calm - N/A   Clear
7:15 AM 33.8 °F - 33.8 °F 100% 30.27 in 7.0 mi Calm Calm - N/A   Clear
7:35 AM 35.6 °F 31.7 °F 35.6 °F 100% 30.27 in 5.0 mi ENE 4.6 mph - N/A   Clear
7:55 AM 37.4 °F - 37.4 °F 100% 30.28 in 7.0 mi Calm Calm - N/A   Clear
8:15 AM 41.0 °F - 41.0 °F 100% 30.28 in 10.0 mi Calm Calm - N/A   Clear
8:35 AM 44.6 °F - 44.6 °F 100% 30.29 in 10.0 mi Calm Calm - N/A   Clear
8:55 AM 48.2 °F - 42.8 °F 82% 30.29 in 10.0 mi ENE 3.5 mph - N/A   Clear
9:15 AM 51.8 °F - 42.8 °F 71% 30.29 in 10.0 mi East 4.6 mph - N/A   Clear
9:35 AM 53.6 °F - 42.8 °F 67% 30.30 in 10.0 mi East 3.5 mph - N/A   Clear
9:55 AM 57.2 °F - 42.8 °F 59% 30.30 in 10.0 mi Calm Calm - N/A   Clear
10:15 AM 59.0 °F - 44.6 °F 59% 30.30 in 10.0 mi Calm Calm - N/A   Clear
10:35 AM 60.8 °F - 44.6 °F 55% 30.29 in 10.0 mi Calm Calm - N/A   Clear
11:15 AM 64.4 °F - 42.8 °F 45% 30.28 in 10.0 mi Calm Calm - N/A   Clear
11:35 AM 66.2 °F - 42.8 °F 43% 30.27 in 10.0 mi SE 3.5 mph - N/A   Clear
12:15 PM 68.0 °F - 41.0 °F 37% 30.24 in 10.0 mi Calm Calm - N/A   Clear
12:35 PM 69.8 °F - 39.2 °F 33% 30.23 in 10.0 mi SE 4.6 mph - N/A   Clear
12:55 PM 71.6 °F - 41.0 °F 33% 30.22 in 10.0 mi ESE 3.5 mph - N/A   Clear
1:15 PM 71.6 °F - 37.4 °F 29% 30.21 in 10.0 mi ESE 5.8 mph - N/A   Clear
1:35 PM 71.6 °F - 35.6 °F 27% 30.20 in 10.0 mi SSW 4.6 mph - N/A   Clear
1:55 PM 73.4 °F - 35.6 °F 25% 30.19 in 10.0 mi Calm Calm - N/A   Clear
2:15 PM 73.4 °F - 37.4 °F 27% 30.18 in 10.0 mi East 6.9 mph - N/A   Clear
2:35 PM 73.4 °F - 35.6 °F 25% 30.17 in 10.0 mi Calm Calm - N/A   Clear
2:55 PM 73.4 °F - 35.6 °F 25% 30.17 in 10.0 mi SSE 5.8 mph - N/A   Clear
3:15 PM 73.4 °F - 35.6 °F 25% 30.16 in 10.0 mi ESE 4.6 mph - N/A   Clear
3:55 PM 73.4 °F - 37.4 °F 27% 30.15 in 10.0 mi East 6.9 mph - N/A   Clear
4:15 PM 71.6 °F - 39.2 °F 31% 30.15 in 10.0 mi East 3.5 mph - N/A   Clear
4:35 PM 71.6 °F - 39.2 °F 31% 30.15 in 10.0 mi East 5.8 mph - N/A   Clear
4:55 PM 68.0 °F - 39.2 °F 35% 30.15 in 10.0 mi East 4.6 mph - N/A   Clear
5:15 PM 66.2 °F - 41.0 °F 40% 30.15 in 10.0 mi East 5.8 mph - N/A   Clear
5:35 PM 62.6 °F - 41.0 °F 45% 30.15 in 10.0 mi East 6.9 mph - N/A   Clear
5:55 PM 62.6 °F - 41.0 °F 45% 30.15 in 10.0 mi East 5.8 mph - N/A   Clear
6:15 PM 60.8 °F - 41.0 °F 48% 30.15 in 10.0 mi East 5.8 mph - N/A   Clear
6:35 PM 60.8 °F - 41.0 °F 48% 30.15 in 10.0 mi East 4.6 mph - N/A   Clear
6:55 PM 59.0 °F - 41.0 °F 51% 30.16 in 10.0 mi East 3.5 mph - N/A   Clear
7:15 PM 59.0 °F - 41.0 °F 51% 30.15 in 10.0 mi ENE 4.6 mph - N/A   Clear
7:35 PM 59.0 °F - 41.0 °F 51% 30.15 in 10.0 mi ENE 3.5 mph - N/A   Clear
7:55 PM 59.0 °F - 41.0 °F 51% 30.16 in 10.0 mi NE 3.5 mph - N/A   Clear
8:15 PM 59.0 °F - 41.0 °F 51% 30.16 in 10.0 mi ENE 3.5 mph - N/A   Clear
8:35 PM 53.6 °F - 41.0 °F 62% 30.15 in 10.0 mi NE 4.6 mph - N/A   Clear
8:55 PM 53.6 °F - 41.0 °F 62% 30.15 in 10.0 mi ENE 5.8 mph - N/A   Clear
9:15 PM 53.6 °F - 41.0 °F 62% 30.15 in 10.0 mi ENE 5.8 mph - N/A   Clear
9:35 PM 53.6 °F - 41.0 °F 62% 30.15 in 10.0 mi ENE 4.6 mph - N/A   Clear
9:55 PM 53.6 °F - 41.0 °F 62% 30.15 in 10.0 mi ENE 3.5 mph - N/A   Clear
10:15 PM 53.6 °F - 41.0 °F 62% 30.14 in 10.0 mi ENE 4.6 mph - N/A   Clear
10:35 PM 51.8 °F - 41.0 °F 67% 30.14 in 10.0 mi ENE 4.6 mph - N/A   Clear
10:55 PM 51.8 °F - 41.0 °F 67% 30.14 in 10.0 mi ENE 4.6 mph - N/A   Clear
11:15 PM 51.8 °F - 41.0 °F 67% 30.13 in 10.0 mi East 4.6 mph - N/A   Clear
11:35 PM 51.8 °F - 41.0 °F 67% 30.13 in 10.0 mi East 4.6 mph - N/A   Clear
11:55 PM 51.8 °F - 41.0 °F 67% 30.13 in 10.0 mi East 4.6 mph - N/A   Clear